Hourly Weather Rudenky-Honchari

Today, 1 August, Sunday

Time Temperature Precipitation Wind Pressure Humidity
00:00 +23°C° 0 mm 1 mps 744 mmHg 55%
01:00 +23°C° 0 mm 1 mps 744 mmHg 56%
02:00 +22°C° 0 mm 1 mps 744 mmHg 57%
03:00 +21°C° 0 mm 2 mps 744 mmHg 59%
04:00 +21°C° 0 mm 2 mps 744 mmHg 60%
05:00 +21°C° 0 mm 2 mps 744 mmHg 61%
06:00 +24°C° 0 mm 2 mps 745 mmHg 57%
07:00 +26°C° 0 mm 3 mps 745 mmHg 52%
08:00 +29°C° 0 mm 3 mps 745 mmHg 44%
09:00 +31°C° 0 mm 3 mps 745 mmHg 40%
10:00 +33°C° 0 mm 3 mps 745 mmHg 35%
11:00 +35°C° 0 mm 3 mps 745 mmHg 31%
12:00 +35°C° 0 mm 3 mps 744 mmHg 29%
13:00 +36°C° 0 mm 3 mps 744 mmHg 28%
14:00 +36°C° 0 mm 3 mps 744 mmHg 26%
15:00 +36°C° 0 mm 3 mps 744 mmHg 27%
16:00 +35°C° 0 mm 3 mps 744 mmHg 28%
17:00 +35°C° 0 mm 2 mps 743 mmHg 29%
18:00 +32°C° 0 mm 2 mps 743 mmHg 34%
19:00 +29°C° 0 mm 1 mps 744 mmHg 39%
20:00 +27°C° 0 mm 1 mps 744 mmHg 44%
21:00 +27°C° 0 mm 1 mps 743 mmHg 45%
22:00 +26°C° 0 mm 2 mps 743 mmHg 47%
23:00 +25°C° 0 mm 2 mps 743 mmHg 48%

Tomorrow, 2 August, Monday

Time Temperature Precipitation Wind Pressure Humidity
00:00 +25°C° 0 mm 2 mps 743 mmHg 49%
01:00 +25°C° 0 mm 3 mps 743 mmHg 50%
02:00 +24°C° 0 mm 3 mps 743 mmHg 51%
03:00 +24°C° 0 mm 3 mps 743 mmHg 52%
04:00 +25°C° 0 mm 3 mps 743 mmHg 53%
05:00 +25°C° 0 mm 3 mps 743 mmHg 54%
06:00 +27°C° 0 mm 3 mps 743 mmHg 51%
07:00 +29°C° 0 mm 4 mps 743 mmHg 48%
08:00 +30°C° 0 mm 5 mps 743 mmHg 45%
09:00 +33°C° 0 mm 6 mps 743 mmHg 40%
10:00 +35°C° 0 mm 6 mps 743 mmHg 35%
11:00 +38°C° 0 mm 7 mps 743 mmHg 29%
12:00 +38°C° 0 mm 7 mps 742 mmHg 28%
13:00 +39°C° 0 mm 7 mps 742 mmHg 27%
14:00 +40°C° 0 mm 7 mps 741 mmHg 25%
15:00 +33°C° 2 mm 7 mps 742 mmHg 45%
16:00 +27°C° 2 mm 7 mps 742 mmHg 64%
17:00 +21°C° 2 mm 6 mps 742 mmHg 84%
18:00 +22°C° 0.9 mm 5 mps 742 mmHg 85%
19:00 +22°C° 0.9 mm 4 mps 742 mmHg 86%
20:00 +22°C° 0.9 mm 4 mps 742 mmHg 86%
21:00 +22°C° 1.1 mm 4 mps 742 mmHg 88%
22:00 +21°C° 1.1 mm 3 mps 742 mmHg 90%
23:00 +21°C° 1.1 mm 3 mps 743 mmHg 92%

Day after tomorrow, 3 August, Tuesday

Time Temperature Precipitation Wind Pressure Humidity
00:00 +20°C° 0.1 mm 3 mps 743 mmHg 93%
01:00 +20°C° 0.1 mm 3 mps 743 mmHg 93%
02:00 +19°C° 0.1 mm 2 mps 743 mmHg 94%
03:00 +19°C° 0 mm 3 mps 744 mmHg 94%
04:00 +19°C° 0 mm 3 mps 744 mmHg 94%
05:00 +18°C° 0 mm 4 mps 744 mmHg 94%
06:00 +19°C° 0 mm 4 mps 745 mmHg 87%
07:00 +20°C° 0 mm 4 mps 745 mmHg 81%
08:00 +20°C° 0 mm 4 mps 745 mmHg 74%
09:00 +22°C° 0 mm 4 mps 746 mmHg 66%
10:00 +23°C° 0 mm 4 mps 746 mmHg 58%
11:00 +26°C° 0 mm 4 mps 746 mmHg 50%
12:00 +26°C° 0 mm 4 mps 746 mmHg 47%
13:00 +27°C° 0 mm 4 mps 746 mmHg 43%
14:00 +28°C° 0 mm 4 mps 746 mmHg 40%
15:00 +28°C° 0 mm 3 mps 746 mmHg 40%
16:00 +27°C° 0 mm 3 mps 746 mmHg 40%
17:00 +27°C° 0 mm 3 mps 746 mmHg 41%
18:00 +26°C° 0 mm 3 mps 746 mmHg 44%
19:00 +25°C° 0 mm 3 mps 747 mmHg 48%
20:00 +22°C° 0 mm 3 mps 747 mmHg 52%
21:00 +23°C° 0 mm 2 mps 747 mmHg 55%
22:00 +21°C° 0 mm 2 mps 747 mmHg 58%
23:00 +21°C° 0 mm 1 mps 748 mmHg 61%

4 August, Wednesday

Time Temperature Precipitation Wind Pressure Humidity
00:00 +20°C° 0 mm 1 mps 748 mmHg 62%
01:00 +20°C° 0 mm 1 mps 748 mmHg 63%
02:00 +18°C° 0 mm 0 mps 748 mmHg 64%
03:00 +18°C° 0 mm 0 mps 748 mmHg 64%
04:00 +18°C° 0 mm 0 mps 748 mmHg 65%
05:00 +18°C° 0 mm 0 mps 748 mmHg 65%
06:00 +21°C° 0 mm 1 mps 748 mmHg 59%
07:00 +23°C° 0 mm 1 mps 749 mmHg 54%
08:00 +25°C° 0 mm 1 mps 749 mmHg 48%
09:00 +26°C° 0 mm 2 mps 749 mmHg 43%
10:00 +27°C° 0 mm 2 mps 749 mmHg 39%
11:00 +28°C° 0 mm 2 mps 749 mmHg 34%
12:00 +29°C° 0 mm 3 mps 749 mmHg 33%
13:00 +29°C° 0 mm 3 mps 749 mmHg 31%
14:00 +29°C° 0 mm 3 mps 749 mmHg 30%
15:00 +29°C° 0 mm 2 mps 748 mmHg 30%
16:00 +29°C° 0 mm 2 mps 748 mmHg 31%
17:00 +29°C° 0 mm 2 mps 748 mmHg 31%
18:00 +27°C° 0 mm 2 mps 748 mmHg 36%
19:00 +25°C° 0 mm 2 mps 748 mmHg 40%
20:00 +23°C° 0 mm 1 mps 748 mmHg 45%
21:00 +22°C° 0 mm 1 mps 748 mmHg 46%
22:00 +21°C° 0 mm 1 mps 748 mmHg 48%
23:00 +20°C° 0 mm 1 mps 748 mmHg 50%

5 August, Thursday

Time Temperature Precipitation Wind Pressure Humidity
00:00 +20°C° 0 mm 1 mps 748 mmHg 51%
01:00 +20°C° 0 mm 1 mps 748 mmHg 52%
02:00 +19°C° 0 mm 1 mps 748 mmHg 53%
03:00 +19°C° 0 mm 1 mps 748 mmHg 53%
04:00 +18°C° 0 mm 2 mps 748 mmHg 54%
05:00 +18°C° 0 mm 2 mps 748 mmHg 54%
06:00 +20°C° 0 mm 2 mps 748 mmHg 49%
07:00 +24°C° 0 mm 2 mps 748 mmHg 44%
08:00 +26°C° 0 mm 3 mps 748 mmHg 39%
09:00 +28°C° 0 mm 3 mps 748 mmHg 36%
10:00 +29°C° 0 mm 3 mps 748 mmHg 32%
11:00 +31°C° 0 mm 3 mps 748 mmHg 29%
12:00 +31°C° 0 mm 3 mps 747 mmHg 28%
13:00 +33°C° 0 mm 3 mps 747 mmHg 27%
14:00 +33°C° 0 mm 3 mps 747 mmHg 26%
15:00 +32°C° 0 mm 2 mps 747 mmHg 27%
16:00 +32°C° 0 mm 2 mps 746 mmHg 29%
17:00 +31°C° 0 mm 2 mps 746 mmHg 31%
18:00 +30°C° 0 mm 1 mps 746 mmHg 34%
19:00 +28°C° 0 mm 1 mps 746 mmHg 37%
20:00 +26°C° 0 mm 1 mps 746 mmHg 40%
21:00 +25°C° 0 mm 1 mps 745 mmHg 42%
22:00 +25°C° 0 mm 2 mps 745 mmHg 43%
23:00 +24°C° 0 mm 2 mps 745 mmHg 44%

6 August, Friday

Time Temperature Precipitation Wind Pressure Humidity
00:00 +22°C° 0 mm 3 mps 745 mmHg 46%
01:00 +22°C° 0 mm 3 mps 745 mmHg 47%
02:00 +21°C° 0 mm 3 mps 745 mmHg 48%
03:00 +21°C° 0 mm 3 mps 745 mmHg 49%
04:00 +21°C° 0 mm 3 mps 745 mmHg 51%
05:00 +20°C° 0 mm 3 mps 745 mmHg 52%
06:00 +24°C° 0 mm 3 mps 745 mmHg 46%
07:00 +26°C° 0 mm 4 mps 745 mmHg 41%
08:00 +28°C° 0 mm 4 mps 745 mmHg 35%
09:00 +30°C° 0 mm 4 mps 744 mmHg 31%
10:00 +33°C° 0 mm 5 mps 744 mmHg 28%
11:00 +34°C° 0 mm 5 mps 744 mmHg 24%
12:00 +35°C° 0 mm 5 mps 744 mmHg 23%
13:00 +36°C° 0 mm 5 mps 743 mmHg 22%
14:00 +36°C° 0 mm 6 mps 743 mmHg 20%
15:00 +36°C° 0 mm 6 mps 742 mmHg 22%
16:00 +36°C° 0 mm 6 mps 742 mmHg 24%
17:00 +35°C° 0 mm 6 mps 742 mmHg 25%
18:00 +33°C° 0 mm 5 mps 742 mmHg 29%
19:00 +30°C° 0 mm 4 mps 742 mmHg 33%
20:00 +28°C° 0 mm 3 mps 742 mmHg 38%
21:00 +27°C° 0 mm 3 mps 742 mmHg 40%
22:00 +26°C° 0 mm 3 mps 742 mmHg 42%
23:00 +25°C° 0 mm 2 mps 742 mmHg 45%
Show more

We Need Your Consent

Meteoprog and our Service Providers may store and access personal data such as cookies, device identifiers or other similar technologies on your device and process such data to personalise content and ads, as well as provide social media features and to analyse the traffic.

  • Store and/or access information on your device

    Cookies, device identifiers or other information can be stored or accessed on your device for the purposes indicated above.

  • Personalised ads and content, ad and content measurement, audience insights, and products development

    Ads and content can be personalised based on a profile. More data can be added to better personalise ads and content. Ad and content performance can be measured. Insights about the audience who saw the ads and content can be derived. Such data can be used to develop or improve user’s experience, systems and software.

By clicking ‘I Agree’ you will allow the use of indicated cookies, device identifiers, web beacons or other similar technologies. Your settings can be changed in the browser on your device.

For certain purposes, legitimate interests may be relied on, rather than consent. You can read more about this in our Privacy and Cookie Policy.